Location: Bannatyne
(13.0833°N, 59.5333°W)
Time: 14:24:46
(UTC+00:00)

Vanguard 2 Rocket - Pass Details

Date: 21 January 2020
Orbit: 554 x 3326 km, 32.9° (Epoch: 29 March)

Event Time Altitude Azimuth Distance (km) Brightness Sun altitude
Rises 09:03:05 0° 276° (W) 2,749 - -19.8°
Reaches altitude 10° 09:05:35 10° 295° (WNW) 1,959 - -19.2°
Exits shadow 09:08:31 20° 338° (NNW) 1,578 7.8 -18.5°
Maximum altitude 09:08:53 20° 345° (NNW) 1,597 7.9 -18.4°
Drops below altitude 10° 09:13:07 10° 33° (NNE) 2,589 9.4 -17.4°
Sets 09:17:05 0° 48° (NE) 3,987 10.6 -16.5°
